Location: Roland
(31.1349°N, 85.4372°W)
Time: 22:20:06
(UTC+00:00)

Tiros 1 - Pass Details

Date: 19 April 2021
Orbit: 630 x 664 km, 48.4° (Epoch: 05 May)

Event Time Altitude Azimuth Distance (km) Brightness Sun altitude
Rises 14:06:20 0° 227° (SW) 2,938 10.2 36.8°
Reaches altitude 10° 14:08:40 10° 227° (SW) 2,025 9.5 37.3°
Maximum altitude 14:13:20 88° 138° (SE) 640 7.9 38.3°
Drops below altitude 10° 14:17:59 10° 50° (NE) 2,014 10.3 39.3°
Sets 14:20:18 0° 50° (NE) 2,921 10.9 39.8°
